Location: Asheville, NC
(35.6000°N, 82.5500°W)
Time: 06:30:40
(UTC-05:00)

Vanguard 1 Rocket - Pass Details

Date: 13 February 2018
Orbit: 655 x 4222 km, 34.3° (Epoch: 24 February)

Event Time Altitude Azimuth Distance (km) Brightness Sun altitude
Rises 04:05:03 0° 271° (W) 8,390 - -39.9°
Reaches altitude 10° 04:10:50 10° 271° (W) 7,425 - -38.7°
Exits shadow 04:27:42 50° 270° (W) 4,550 10.3 -35.3°
Maximum altitude 04:36:59 85° 188° (S) 3,446 10.0 -33.5°
Drops below altitude 10° 04:52:40 10° 102° (ESE) 4,846 11.9 -30.3°
Sets 04:55:33 0° 102° (ESE) 5,494 12.5 -29.7°
